Location: Kimberly
(42.5380°N, 114.3640°W)
Time: 11:32:54
(UTC-06:00)

X-37B - Pass Details

Date: 09 August 2021
Orbit: 381 x 393 km, 45.0° (Epoch: 29 August)

Event Time Altitude Azimuth Distance (km) Brightness Sun altitude
Exits shadow 05:27:41 10° 288° (WNW) 1,406 3.1 -12.2°
Reaches altitude 10° 05:27:43 10° 288° (WNW) 1,395 3.0 -12.2°
Maximum altitude 05:30:50 67° 12° (NNE) 414 0.8 -11.8°
Drops below altitude 10° 05:33:57 10° 96° (E) 1,392 4.2 -11.3°
Sets 05:36:02 0° 99° (E) 2,244 5.2 -11.0°
